OE1TRI-13 Weather Reports


time (UTC)temp
C
wind
direction
speed
KPH
gust
KPH
rain 1hr
cm
rain 24hr
cm
rain mn
cm
humidity
%
barometer
mb
20260506151004 20 270 8.0 8.0 0.00 0.00 0.00 37 1020.0
20260506150005 20 292 6.4 9.7 0.00 0.00 0.00 37 1020.0
20260506145004 21 292 8.0 9.7 0.00 0.00 0.00 37 1020.0
20260506143005 22 248 1.6 1.6 0.00 0.00 0.00 31 1020.0
20260506142005 21 248 0.0 8.0 0.00 0.00 0.00 32 1020.0
20260506140005 22 225 8.0 11.3 0.00 0.00 0.00 34 1020.0
20260506135005 22 180 11.3 11.3 0.00 0.00 0.00 32 1020.0
20260506134005 23 202 11.3 11.3 0.00 0.00 0.00 31 1020.0
20260506133005 23 180 8.0 8.0 0.00 0.00 0.00 29 1020.0
20260506132005 23 135 4.8 8.0 0.00 0.00 0.00 29 1020.0
20260506130005 22 158 4.8 8.0 0.00 0.00 0.00 32 1020.0
20260506125005 23 180 1.6 4.8 0.00 0.00 0.00 30 1020.0
20260506124004 23 225 1.6 9.7 0.00 0.00 0.00 30 1020.0
20260506123005 23 202 9.7 9.7 0.00 0.00 0.00 30 1021.0
20260506121004 22 135 12.9 16.1 0.00 0.00 0.00 33 1021.0
20260506120005 23 180 9.7 9.7 0.00 0.00 0.00 32 1021.0
20260506115005 25 180 8.0 11.3 0.00 0.00 0.00 31 1021.0
20260506114005 25 158 1.6 4.8 0.00 0.00 0.00 28 1021.0
20260506113005 22 158 1.6 1.6 0.00 0.00 0.00 31 1021.0
20260506112004 21 338 1.6 4.8 0.00 0.00 0.00 37 1021.0
20260506111005 21 68 4.8 4.8 0.00 0.00 0.00 37 1021.0
20260506110005 20 68 1.6 14.5 0.00 0.00 0.00 38 1022.0
20260506105005 20 22 9.7 14.5 0.00 0.00 0.00 41 1022.0
20260506103005 18 22 8.0 11.3 0.00 0.00 0.00 50 1022.0
20260506102004 18 315 9.7 11.3 0.00 0.00 0.00 49 1022.0
20260506100005 17 22 4.8 8.0 0.00 0.00 0.00 51 1023.0
20260506095004 16 345 8.0 8.0 0.00 0.00 0.00 55 1023.0
20260506094005 15 315 3.2 4.8 0.00 0.00 0.00 58 1023.0
20260506093005 15 315 4.8 4.8 0.00 0.00 0.00 59 1023.0
20260506092005 15 292 1.6 3.2 0.00 0.00 0.00 59 1023.0
20260506091004 16 292 4.8 8.0 0.00 0.00 0.00 59 1023.0
20260506090005 16 292 3.2 4.8 0.00 0.00 0.00 59 1023.0
20260506085005 16 0 3.2 4.8 0.00 0.00 0.00 60 1023.0
20260506084005 17 45 1.6 1.6 0.00 0.00 0.00 57 1023.0
20260506083004 17 292 1.6 1.6 0.00 0.00 0.00 51 1023.0
20260506082005 18 68 0.0 1.6 0.00 0.00 0.00 48 1023.0
20260506081005 20 270 1.6 3.2 0.00 0.00 0.00 44 1023.0
20260506073005 13 90 1.6 1.6 0.00 0.00 0.00 63 1024.0
20260506072005 13 90 0.0 1.6 0.00 0.00 0.00 65 1024.0
20260506071004 13 90 1.6 1.6 0.00 0.00 0.00 66 1024.0
20260506062005 10 112 1.6 1.6 0.00 0.00 0.00 71 1024.0
20260506061005 10 135 0.0 1.6 0.00 0.00 0.00 74 1025.1
20260506051005 7 270 0.0 1.6 0.00 0.00 0.00 83 1025.1
20260506044005 6 135 0.0 4.8 0.00 0.00 0.00 84 1025.1
20260506043005 6 135 4.8 4.8 0.00 0.00 0.00 85 1025.1
20260506042004 6 248 0.0 0.0 0.00 0.00 0.00 86 1025.1
20260506041005 6 248 0.0 0.0 0.00 0.00 0.00 86 1025.1
20260506040005 6 248 0.0 0.0 0.00 0.00 0.00 86 1025.1
20260506035005 6 248 0.0 0.0 0.00 0.00 0.00 85 1025.1
20260506034005 6 248 0.0 0.0 0.00 0.00 0.00 85 1025.1
20260506032004 6 90 0.0 1.6 0.00 0.00 0.00 83 1026.1
20260506031005 6 90 1.6 1.6 0.00 0.00 0.00 82 1026.1
20260506030005 7 202 1.6 1.6 0.00 0.00 0.00 82 1026.1
20260506025005 7 90 1.6 4.8 0.00 0.00 0.00 81 1026.1
20260506024005 7 68 4.8 4.8 0.00 0.00 0.00 80 1026.1
20260506023005 7 180 4.8 8.0 0.00 0.00 0.00 80 1026.1
20260506022005 6 180 1.6 3.2 0.00 0.00 0.00 81 1026.1
20260506021005 6 158 3.2 3.2 0.00 0.00 0.00 83 1026.1
20260506020005 6 158 1.6 1.6 0.00 0.00 0.00 80 1026.1
20260506015004 6 112 1.6 1.6 0.00 0.00 0.00 82 1026.1
20260506014005 6 135 0.0 0.0 0.00 0.00 0.00 82 1026.1
20260506013005 6 135 0.0 1.6 0.00 0.00 0.00 82 1026.1
20260506012005 6 135 1.6 1.6 0.00 0.00 0.00 81 1026.1
20260506011005 6 135 0.0 1.6 0.00 0.00 0.00 81 1026.1
20260506010005 6 135 1.6 1.6 0.00 0.00 0.00 81 1026.1
20260506005005 6 135 1.6 1.6 0.00 0.00 0.00 81 1026.1
20260506004005 6 135 1.6 1.6 0.00 0.00 0.00 82 1026.1
20260506003004 6 135 0.0 1.6 0.00 0.00 0.00 81 1026.1
20260506002005 6 135 1.6 1.6 0.00 0.00 0.00 81 1026.1
20260506001004 6 135 1.6 1.6 0.00 0.00 0.00 81 1026.1
20260506000005 7 135 0.0 0.0 0.00 0.00 0.00 81 1026.1
20260505234004 7 135 1.6 3.2 0.00 0.00 0.00 79 1026.1
20260505233005 7 158 0.0 0.0 0.00 0.00 0.00 79 1026.1
20260505232005 7 158 0.0 1.6 0.00 0.00 0.00 78 1026.1
20260505231004 7 158 1.6 1.6 0.00 0.00 0.00 80 1026.1
20260505225005 8 158 0.0 8.0 0.00 0.00 0.00 77 1026.1
20260505224004 8 135 8.0 8.0 0.00 0.00 0.00 77 1026.1
20260505223004 8 180 1.6 1.6 0.00 0.00 0.00 79 1026.1
20260505222004 8 180 0.0 4.8 0.00 0.00 0.00 77 1026.1
20260505221005 8 180 4.8 4.8 0.00 0.00 0.00 77 1026.1
20260505220005 8 158 1.6 1.6 0.00 0.00 0.00 78 1026.1
20260505215004 8 158 0.0 0.0 0.00 0.00 0.00 76 1026.1
20260505214005 9 158 0.0 0.0 0.00 0.00 0.00 75 1025.1
20260505213005 9 158 0.0 0.0 0.00 0.00 0.00 74 1025.1
20260505211005 10 135 1.6 1.6 0.00 0.00 0.00 73 1025.1
20260505210005 10 135 0.0 0.0 0.00 0.00 0.00 71 1025.1
20260505205004 10 180 0.0 1.6 0.00 0.00 0.00 70 1025.1
20260505204004 10 180 0.0 0.0 0.00 0.00 0.00 67 1025.1
20260505203005 11 180 0.0 1.6 0.00 0.00 0.00 66 1025.1
20260505201005 12 180 0.0 3.2 0.00 0.00 0.00 60 1025.1
20260505195005 12 203 1.6 1.6 0.00 0.00 0.00 63 1025.0
20260505194005 12 248 3.2 3.2 0.00 0.00 0.00 65 1024.0
20260505191005 14 180 3.2 4.8 0.00 0.00 0.00 58 1024.0
20260505190005 14 180 1.6 8.0 0.00 0.00 0.00 55 1024.0
20260505184005 13 180 1.6 3.2 0.00 0.00 0.00 64 1023.0
20260505183005 14 180 1.6 3.2 0.00 0.00 0.00 63 1023.0
20260505182004 15 180 1.6 3.2 0.00 0.00 0.00 61 1023.0
20260505181005 16 202 0.0 1.6 0.00 0.00 0.00 58 1023.0
20260505180005 18 202 1.6 1.6 0.00 0.00 0.00 51 1023.0
20260505175004 19 202 1.6 1.6 0.00 0.00 0.00 46 1023.0
20260505174004 20 292 1.6 1.6 0.00 0.00 0.00 46 1023.0
20260505171004 20 135 1.6 1.6 0.00 0.00 0.00 43 1023.0
20260505170005 22 225 0.0 1.6 0.00 0.00 0.00 44 1023.0
20260505165005 23 225 1.6 1.6 0.00 0.00 0.00 36 1023.0
20260505163005 24 225 8.0 9.7 0.00 0.00 0.00 36 1023.0
20260505162004 23 202 9.7 9.7 0.00 0.00 0.00 35 1023.0
20260505153005 17 292 1.6 4.8 0.00 0.00 0.00 53 1024.0
20260505152005 17 292 1.6 1.6 0.00 0.00 0.00 58 1024.0